PBD731 UWKD-UUEE

Flight info

Callsign PBD731
Flight time 1h 28m
Altitude 32000
Route APTAR1G APTAR L158 DIMGI DIMGI3E
Aircraft B738/M-SDE2E3FGHIRWXY/LB1

Departure

Time 2026-05-07 18:50
Airport Kazan International Airport (UWKD)

Arrival

Time 2026-05-07 20:18
Airport Sheremetyevo International Airport (UUEE)
Time Latitude Longitude Altitude Speed Heading
2026-05-07 18:05 55.60838 49.29632 418 ft 0 kts 33°
2026-05-07 18:29 55.60835 49.29629 418 ft 2 kts 32°
2026-05-07 18:29 55.60822 49.29619 418 ft 2 kts 22°
2026-05-07 18:29 55.60809 49.29607 418 ft 2 kts 27°
2026-05-07 18:30 55.60795 49.29596 418 ft 2 kts 25°
2026-05-07 18:30 55.60782 49.29584 418 ft 2 kts 26°
2026-05-07 18:30 55.60768 49.29572 418 ft 2 kts 25°
2026-05-07 18:30 55.60754 49.29561 418 ft 2 kts 26°
2026-05-07 18:31 55.60741 49.29549 418 ft 2 kts 26°
2026-05-07 18:31 55.60728 49.29538 418 ft 1 kts 25°
2026-05-07 18:31 55.60721 49.29532 418 ft 0 kts 32°
2026-05-07 18:35 55.60737 49.29549 418 ft 7 kts 32°
2026-05-07 18:35 55.60808 49.29491 418 ft 18 kts 292°
2026-05-07 18:36 55.60703 49.29297 418 ft 29 kts 214°
2026-05-07 18:36 55.60578 49.28995 418 ft 33 kts 273°
2026-05-07 18:36 55.60611 49.28576 418 ft 33 kts 298°
2026-05-07 18:36 55.60739 49.28241 418 ft 32 kts 303°
2026-05-07 18:37 55.60864 49.27918 418 ft 31 kts 305°
2026-05-07 18:37 55.60984 49.27614 418 ft 30 kts 305°
2026-05-07 18:37 55.61107 49.27294 418 ft 34 kts 304°
2026-05-07 18:37 55.61216 49.26975 418 ft 26 kts 269°
2026-05-07 18:38 55.61169 49.26868 418 ft 0 kts 216°
2026-05-07 18:48 55.61164 49.26861 418 ft 5 kts 215°
2026-05-07 18:48 55.61079 49.26778 418 ft 18 kts 180°
2026-05-07 18:48 55.61039 49.26817 418 ft 0 kts 128°
2026-05-07 18:49 55.61006 49.26897 418 ft 29 kts 124°
2026-05-07 18:49 55.60745 49.27572 418 ft 101 kts 124°
2026-05-07 18:49 55.60233 49.28888 420 ft 159 kts 123°
2026-05-07 18:50 55.59581 49.30583 949 ft 168 kts 122°
2026-05-07 18:50 55.58937 49.32261 1772 ft 166 kts 121°
2026-05-07 18:50 55.58299 49.33890 2301 ft 171 kts 122°
2026-05-07 18:50 55.57594 49.35688 2668 ft 185 kts 122°
2026-05-07 18:51 55.56831 49.37632 2994 ft 204 kts 125°
2026-05-07 18:51 55.55694 49.39238 3359 ft 224 kts 159°
2026-05-07 18:51 55.54063 49.39332 3714 ft 246 kts 194°
2026-05-07 18:51 55.52442 49.38187 4177 ft 261 kts 204°
2026-05-07 18:52 55.50770 49.36806 4668 ft 274 kts 203°
2026-05-07 18:52 55.49016 49.35465 5327 ft 279 kts 202°
2026-05-07 18:52 55.47218 49.34181 6030 ft 283 kts 201°
2026-05-07 18:52 55.45369 49.32902 6719 ft 288 kts 201°
2026-05-07 18:53 55.43533 49.31573 7399 ft 291 kts 206°
2026-05-07 18:53 55.41839 49.29635 7874 ft 295 kts 226°
2026-05-07 18:53 55.40740 49.26620 7951 ft 290 kts 255°
2026-05-07 18:53 55.40532 49.23194 7956 ft 284 kts 277°
2026-05-07 18:54 55.40808 49.19776 7951 ft 284 kts 281°
2026-05-07 18:54 55.41097 49.16331 7962 ft 283 kts 279°
2026-05-07 18:54 55.41352 49.12907 7956 ft 284 kts 279°
2026-05-07 18:54 55.41587 49.09467 7960 ft 284 kts 278°
2026-05-07 18:55 55.41815 49.06044 7957 ft 283 kts 278°
2026-05-07 18:55 55.42045 49.02578 7956 ft 283 kts 278°
2026-05-07 18:55 55.42272 48.99180 7958 ft 284 kts 278°
2026-05-07 18:55 55.42503 48.95718 7957 ft 284 kts 278°
2026-05-07 18:56 55.42732 48.92279 7956 ft 283 kts 278°
2026-05-07 18:56 55.42959 48.88833 7957 ft 284 kts 278°
2026-05-07 18:56 55.43186 48.85377 7955 ft 283 kts 278°
2026-05-07 18:56 55.43409 48.81977 7956 ft 283 kts 278°
2026-05-07 18:57 55.43631 48.78571 8117 ft 295 kts 278°
2026-05-07 18:57 55.43862 48.75026 9012 ft 288 kts 278°
2026-05-07 18:57 55.44085 48.71561 9745 ft 288 kts 278°
2026-05-07 18:57 55.44309 48.68091 10394 ft 290 kts 278°
2026-05-07 18:58 55.44544 48.64462 10745 ft 305 kts 278°
2026-05-07 18:58 55.44783 48.60731 11173 ft 316 kts 278°
2026-05-07 18:58 55.45031 48.56834 11758 ft 321 kts 278°
2026-05-07 18:58 55.45350 48.52961 12446 ft 323 kts 283°
2026-05-07 18:59 55.45896 48.49148 13103 ft 325 kts 287°
2026-05-07 18:59 55.46572 48.45325 13785 ft 328 kts 288°
2026-05-07 18:59 55.47275 48.41536 14454 ft 331 kts 289°
2026-05-07 18:59 55.47991 48.37653 14958 ft 335 kts 288°
2026-05-07 19:00 55.48698 48.33730 15053 ft 337 kts 287°
2026-05-07 19:00 55.49381 48.29848 15058 ft 333 kts 287°
2026-05-07 19:00 55.50068 48.25894 15136 ft 341 kts 287°
2026-05-07 19:00 55.50747 48.21949 15976 ft 338 kts 287°
2026-05-07 19:01 55.51426 48.17994 16647 ft 340 kts 287°
2026-05-07 19:01 55.52115 48.13967 17281 ft 343 kts 287°
2026-05-07 19:01 55.52797 48.09983 17928 ft 345 kts 287°
2026-05-07 19:01 55.53495 48.05889 18510 ft 349 kts 287°
2026-05-07 19:02 55.54192 48.01798 19097 ft 352 kts 286°
2026-05-07 19:02 55.54895 47.97667 19666 ft 355 kts 286°
2026-05-07 19:02 55.55607 47.93469 20262 ft 358 kts 286°
2026-05-07 19:02 55.56313 47.89299 20802 ft 361 kts 286°
2026-05-07 19:03 55.57027 47.85069 21369 ft 363 kts 286°
2026-05-07 19:03 55.57742 47.80819 21901 ft 365 kts 286°
2026-05-07 19:03 55.58469 47.76492 22373 ft 370 kts 286°
2026-05-07 19:03 55.59194 47.72163 22890 ft 372 kts 285°
2026-05-07 19:04 55.59930 47.67758 23376 ft 375 kts 285°
2026-05-07 19:04 55.60670 47.63323 23862 ft 377 kts 285°
2026-05-07 19:04 55.61402 47.58921 24374 ft 379 kts 286°
2026-05-07 19:04 55.62144 47.54444 24782 ft 383 kts 286°
2026-05-07 19:05 55.62896 47.49902 25330 ft 383 kts 286°
2026-05-07 19:05 55.63634 47.45422 25792 ft 385 kts 286°
2026-05-07 19:05 55.64384 47.40871 26207 ft 388 kts 286°
2026-05-07 19:05 55.65146 47.36225 26583 ft 392 kts 286°
2026-05-07 19:06 55.65905 47.31589 27078 ft 392 kts 286°
2026-05-07 19:06 55.67428 47.22252 27814 ft 399 kts 286°
2026-05-07 19:06 55.68196 47.17525 28246 ft 400 kts 286°
2026-05-07 19:07 55.68961 47.12806 28569 ft 403 kts 286°
2026-05-07 19:07 55.69737 47.08005 28933 ft 406 kts 286°
2026-05-07 19:07 55.70522 47.03142 29364 ft 406 kts 287°
2026-05-07 19:07 55.71299 46.98313 29695 ft 409 kts 286°
2026-05-07 19:08 55.72083 46.93431 30052 ft 411 kts 287°
2026-05-07 19:08 55.72864 46.88557 30413 ft 413 kts 287°
2026-05-07 19:08 55.73649 46.83637 30775 ft 414 kts 287°
2026-05-07 19:08 55.74421 46.78777 31107 ft 416 kts 287°
2026-05-07 19:09 55.75210 46.73798 31446 ft 418 kts 287°
2026-05-07 19:09 55.75996 46.68826 31744 ft 421 kts 287°
2026-05-07 19:09 55.76782 46.63834 31963 ft 424 kts 287°
2026-05-07 19:09 55.77579 46.58762 31958 ft 425 kts 287°
2026-05-07 19:10 55.79032 46.48770 31949 ft 421 kts 282°
2026-05-07 19:10 55.79787 46.38417 31949 ft 425 kts 276°
2026-05-07 19:11 55.80146 46.27950 31950 ft 423 kts 274°
2026-05-07 19:11 55.80436 46.17550 31943 ft 424 kts 273°
2026-05-07 19:12 55.80727 46.07270 31944 ft 424 kts 274°
2026-05-07 19:12 55.81031 45.96788 31941 ft 424 kts 274°
2026-05-07 19:13 55.81335 45.86342 31936 ft 423 kts 274°
2026-05-07 19:13 55.81634 45.75855 31935 ft 427 kts 274°
2026-05-07 19:14 55.81927 45.65370 31928 ft 425 kts 274°
2026-05-07 19:14 55.82212 45.54862 31930 ft 427 kts 274°
2026-05-07 19:15 55.82471 45.45059 31922 ft 427 kts 274°
2026-05-07 19:15 55.82736 45.34727 31915 ft 429 kts 272°
2026-05-07 19:16 55.82996 45.24171 31912 ft 429 kts 272°
2026-05-07 19:16 55.83205 45.15236 31915 ft 428 kts 273°
2026-05-07 19:17 55.83434 45.05259 31910 ft 429 kts 272°
2026-05-07 19:17 55.83667 44.94688 31910 ft 429 kts 272°
2026-05-07 19:18 55.83895 44.84072 31906 ft 427 kts 273°
2026-05-07 19:18 55.84114 44.73550 31906 ft 428 kts 273°
2026-05-07 19:19 55.84325 44.62992 31906 ft 428 kts 273°
2026-05-07 19:19 55.84527 44.52497 31906 ft 427 kts 273°
2026-05-07 19:20 55.84721 44.41965 31907 ft 428 kts 273°
2026-05-07 19:20 55.84908 44.31408 31908 ft 427 kts 272°
2026-05-07 19:21 55.85085 44.20858 31907 ft 427 kts 272°
2026-05-07 19:21 55.85251 44.10344 31908 ft 426 kts 273°
2026-05-07 19:22 55.85408 43.99891 31909 ft 423 kts 273°
2026-05-07 19:22 55.85556 43.89474 31907 ft 424 kts 272°
2026-05-07 19:23 55.85696 43.79028 31903 ft 423 kts 272°
2026-05-07 19:23 55.85827 43.68586 31901 ft 425 kts 272°
2026-05-07 19:24 55.85950 43.58124 31894 ft 424 kts 272°
2026-05-07 19:24 55.86063 43.47694 31893 ft 424 kts 272°
2026-05-07 19:25 55.86175 43.37151 31889 ft 425 kts 272°
2026-05-07 19:25 55.86279 43.26663 31887 ft 425 kts 271°
2026-05-07 19:26 55.86373 43.16233 31882 ft 423 kts 271°
2026-05-07 19:26 55.86459 43.05756 31884 ft 424 kts 271°
2026-05-07 19:27 55.86535 42.95291 31893 ft 423 kts 271°
2026-05-07 19:27 55.86601 42.84843 31896 ft 424 kts 271°
2026-05-07 19:28 55.86660 42.74397 31895 ft 422 kts 271°
2026-05-07 19:28 55.86709 42.63964 31895 ft 423 kts 271°
2026-05-07 19:29 55.86749 42.53561 31898 ft 421 kts 271°
2026-05-07 19:29 55.86780 42.43207 31900 ft 422 kts 271°
2026-05-07 19:30 55.86803 42.32807 31901 ft 420 kts 270°
2026-05-07 19:30 55.86818 42.22404 31902 ft 420 kts 270°
2026-05-07 19:31 55.86823 42.12071 31905 ft 420 kts 271°
2026-05-07 19:31 55.86821 42.01711 31904 ft 416 kts 271°
2026-05-07 19:32 55.86809 41.91395 31903 ft 419 kts 271°
2026-05-07 19:32 55.86791 41.81071 31895 ft 417 kts 271°
2026-05-07 19:33 55.86667 41.70769 31886 ft 416 kts 269°
2026-05-07 19:33 55.86343 41.60457 31887 ft 418 kts 268°
2026-05-07 19:34 55.85989 41.50212 31889 ft 417 kts 268°
2026-05-07 19:34 55.85642 41.39961 31887 ft 416 kts 268°
2026-05-07 19:35 55.85300 41.29665 31887 ft 416 kts 267°
2026-05-07 19:35 55.84957 41.19418 31892 ft 417 kts 268°
2026-05-07 19:36 55.84611 41.09240 31886 ft 414 kts 268°
2026-05-07 19:36 55.84257 40.98999 31898 ft 417 kts 268°
2026-05-07 19:37 55.83897 40.88794 31903 ft 413 kts 268°
2026-05-07 19:37 55.83529 40.78666 31897 ft 413 kts 268°
2026-05-07 19:38 55.83149 40.68401 31901 ft 415 kts 267°
2026-05-07 19:38 55.82760 40.58161 31701 ft 423 kts 267°
2026-05-07 19:39 55.82552 40.52912 31426 ft 428 kts 267°
2026-05-07 19:39 55.82341 40.47696 31152 ft 428 kts 267°
2026-05-07 19:39 55.82122 40.42402 30871 ft 428 kts 267°
2026-05-07 19:39 55.81904 40.37164 30600 ft 429 kts 267°
2026-05-07 19:40 55.81685 40.31916 30321 ft 428 kts 266°
2026-05-07 19:40 55.81460 40.26590 30039 ft 426 kts 266°
2026-05-07 19:40 55.81239 40.21394 29759 ft 422 kts 266°
2026-05-07 19:40 55.81015 40.16175 29453 ft 421 kts 266°
2026-05-07 19:41 55.80791 40.10998 28961 ft 421 kts 266°
2026-05-07 19:41 55.80565 40.05846 28385 ft 417 kts 266°
2026-05-07 19:41 55.80341 40.00790 27777 ft 414 kts 266°
2026-05-07 19:41 55.80114 39.95729 27169 ft 411 kts 266°
2026-05-07 19:42 55.79889 39.90728 26559 ft 408 kts 266°
2026-05-07 19:42 55.79660 39.85679 25999 ft 403 kts 265°
2026-05-07 19:42 55.79440 39.80859 25864 ft 389 kts 265°
2026-05-07 19:42 55.79186 39.76136 25616 ft 379 kts 264°
2026-05-07 19:43 55.78889 39.71505 25353 ft 371 kts 263°
2026-05-07 19:43 55.78582 39.67069 25093 ft 367 kts 263°
2026-05-07 19:43 55.78264 39.62533 24833 ft 367 kts 263°
2026-05-07 19:43 55.77953 39.58095 24572 ft 367 kts 263°
2026-05-07 19:44 55.77643 39.53625 24308 ft 364 kts 263°
2026-05-07 19:44 55.77335 39.49153 24046 ft 362 kts 263°
2026-05-07 19:44 55.77032 39.44762 23907 ft 360 kts 263°
2026-05-07 19:44 55.76726 39.40319 23717 ft 363 kts 263°
2026-05-07 19:45 55.76421 39.35939 23443 ft 360 kts 263°
2026-05-07 19:45 55.76119 39.31620 23192 ft 355 kts 262°
2026-05-07 19:45 55.75809 39.27187 22944 ft 354 kts 262°
2026-05-07 19:45 55.75507 39.22887 22911 ft 352 kts 262°
2026-05-07 19:46 55.75211 39.18706 22913 ft 355 kts 262°
2026-05-07 19:46 55.75055 39.14352 22905 ft 356 kts 273°
2026-05-07 19:46 55.75584 39.10015 22902 ft 360 kts 286°
2026-05-07 19:46 55.76489 39.05852 22655 ft 365 kts 290°
2026-05-07 19:47 55.77498 39.01797 22403 ft 362 kts 291°
2026-05-07 19:47 55.78518 38.97741 22150 ft 357 kts 290°
2026-05-07 19:47 55.79495 38.93751 21899 ft 355 kts 290°
2026-05-07 19:47 55.80451 38.89711 21650 ft 355 kts 289°
2026-05-07 19:48 55.81373 38.85702 21396 ft 351 kts 289°
2026-05-07 19:48 55.82283 38.81659 21144 ft 349 kts 289°
2026-05-07 19:48 55.83172 38.77658 20894 ft 348 kts 289°
2026-05-07 19:48 55.84047 38.73681 20641 ft 347 kts 288°
2026-05-07 19:49 55.84918 38.69695 20391 ft 346 kts 288°
2026-05-07 19:49 55.85780 38.65733 20138 ft 344 kts 288°
2026-05-07 19:49 55.86633 38.61811 19885 ft 340 kts 288°
2026-05-07 19:49 55.87477 38.57910 19637 ft 339 kts 288°
2026-05-07 19:50 55.88322 38.54001 19384 ft 338 kts 288°
2026-05-07 19:50 55.89161 38.50118 19132 ft 336 kts 288°
2026-05-07 19:50 55.90000 38.46228 18880 ft 334 kts 288°
2026-05-07 19:50 55.90819 38.42418 18628 ft 332 kts 288°
2026-05-07 19:51 55.91637 38.38605 18380 ft 331 kts 288°
2026-05-07 19:51 55.92456 38.34780 18125 ft 329 kts 288°
2026-05-07 19:51 55.93285 38.30968 17877 ft 327 kts 290°
2026-05-07 19:51 55.94498 38.27534 17624 ft 333 kts 307°
2026-05-07 19:52 55.96186 38.24656 17393 ft 338 kts 315°
2026-05-07 19:52 55.97976 38.22040 17147 ft 337 kts 316°
2026-05-07 19:52 55.99805 38.19407 16891 ft 334 kts 315°
2026-05-07 19:52 56.01579 38.16780 16647 ft 333 kts 315°
2026-05-07 19:53 56.03338 38.14090 16401 ft 333 kts 314°
2026-05-07 19:53 56.05062 38.11394 16148 ft 330 kts 313°
2026-05-07 19:53 56.06774 38.08684 15903 ft 327 kts 313°
2026-05-07 19:53 56.08450 38.06015 15662 ft 327 kts 313°
2026-05-07 19:54 56.10151 38.03299 15415 ft 327 kts 313°
2026-05-07 19:54 56.11848 38.00587 15154 ft 325 kts 313°
2026-05-07 19:54 56.13533 37.97897 14915 ft 322 kts 313°
2026-05-07 19:54 56.15192 37.95245 14664 ft 322 kts 313°
2026-05-07 19:55 56.16856 37.92579 14427 ft 321 kts 313°
2026-05-07 19:55 56.18498 37.89950 14050 ft 317 kts 314°
2026-05-07 19:55 56.20141 37.87318 13589 ft 315 kts 314°
2026-05-07 19:55 56.21759 37.84720 13128 ft 313 kts 313°
2026-05-07 19:56 56.23366 37.82132 12682 ft 310 kts 313°
2026-05-07 19:56 56.24948 37.79587 12316 ft 305 kts 313°
2026-05-07 19:56 56.26503 37.77085 12151 ft 294 kts 313°
2026-05-07 19:56 56.28004 37.74676 12048 ft 281 kts 313°
2026-05-07 19:57 56.29424 37.72390 11834 ft 274 kts 313°
2026-05-07 19:57 56.30750 37.70017 11590 ft 264 kts 307°
2026-05-07 19:57 56.31930 37.67529 11255 ft 261 kts 304°
2026-05-07 19:57 56.33064 37.65022 10934 ft 259 kts 304°
2026-05-07 19:58 56.34201 37.62510 10620 ft 256 kts 304°
2026-05-07 19:58 56.35303 37.60100 10415 ft 249 kts 304°
2026-05-07 19:58 56.36411 37.57697 10121 ft 246 kts 304°
2026-05-07 19:58 56.37470 37.55322 9897 ft 240 kts 298°
2026-05-07 19:59 56.37972 37.52554 9305 ft 239 kts 265°
2026-05-07 19:59 56.37494 37.49730 8853 ft 239 kts 239°
2026-05-07 19:59 56.36398 37.47503 8505 ft 240 kts 220°
2026-05-07 19:59 56.34942 37.46015 8195 ft 241 kts 206°
2026-05-07 20:00 56.33308 37.45379 7811 ft 248 kts 187°
2026-05-07 20:00 56.31601 37.45143 7446 ft 242 kts 201°
2026-05-07 20:00 56.30178 37.43740 7099 ft 231 kts 230°
2026-05-07 20:00 56.29449 37.41328 7048 ft 217 kts 260°
2026-05-07 20:01 56.29591 37.38629 7030 ft 224 kts 289°
2026-05-07 20:01 56.30526 37.36397 6772 ft 233 kts 319°
2026-05-07 20:01 56.32064 37.35257 6389 ft 249 kts 349°
2026-05-07 20:01 56.33807 37.35659 6049 ft 261 kts 19°
2026-05-07 20:02 56.35271 37.37538 5751 ft 266 kts 50°
2026-05-07 20:02 56.36108 37.40514 5422 ft 267 kts 80°
2026-05-07 20:02 56.36060 37.43740 5278 ft 251 kts 110°
2026-05-07 20:02 56.35278 37.46375 5148 ft 230 kts 140°
2026-05-07 20:03 56.34068 37.48024 5014 ft 210 kts 161°
2026-05-07 20:03 56.32790 37.49073 5002 ft 195 kts 166°
2026-05-07 20:03 56.31556 37.49975 4995 ft 189 kts 167°
2026-05-07 20:03 56.30295 37.50880 5014 ft 210 kts 166°
2026-05-07 20:04 56.28860 37.52023 4985 ft 235 kts 153°
2026-05-07 20:04 56.27584 37.53904 5010 ft 241 kts 144°
2026-05-07 20:04 56.26281 37.55766 4988 ft 239 kts 153°
2026-05-07 20:04 56.24855 37.57172 4998 ft 233 kts 163°
2026-05-07 20:05 56.23331 37.58171 4988 ft 229 kts 171°
2026-05-07 20:05 56.21774 37.58753 4985 ft 225 kts 182°
2026-05-07 20:05 56.20236 37.58698 4986 ft 219 kts 197°
2026-05-07 20:05 56.18837 37.57853 4988 ft 211 kts 214°
2026-05-07 20:06 56.17709 37.56231 4985 ft 206 kts 234°
2026-05-07 20:06 56.16965 37.54041 4998 ft 203 kts 250°
2026-05-07 20:06 56.16689 37.51582 4988 ft 204 kts 272°
2026-05-07 20:06 56.17071 37.49112 4998 ft 211 kts 295°
2026-05-07 20:07 56.17996 37.47044 4991 ft 216 kts 315°
2026-05-07 20:07 56.19356 37.45789 4991 ft 230 kts 342°
2026-05-07 20:07 56.20987 37.45847 4996 ft 244 kts 11°
2026-05-07 20:07 56.22514 37.47254 5005 ft 251 kts 31°
2026-05-07 20:08 56.23940 37.49063 4985 ft 250 kts 31°
2026-05-07 20:08 56.25373 37.50873 4987 ft 258 kts 37°
2026-05-07 20:08 56.26452 37.53455 4957 ft 265 kts 70°
2026-05-07 20:08 56.26650 37.56664 4733 ft 259 kts 104°
2026-05-07 20:09 56.25980 37.59633 4368 ft 253 kts 131°
2026-05-07 20:09 56.24796 37.61864 4041 ft 246 kts 149°
2026-05-07 20:09 56.23400 37.63502 3987 ft 240 kts 156°
2026-05-07 20:10 56.20431 37.66442 3984 ft 242 kts 157°
2026-05-07 20:10 56.18970 37.67919 3988 ft 244 kts 157°
2026-05-07 20:10 56.17482 37.69445 3992 ft 245 kts 156°
2026-05-07 20:10 56.15993 37.70981 3994 ft 245 kts 156°
2026-05-07 20:11 56.14528 37.72490 3990 ft 245 kts 156°
2026-05-07 20:11 56.13055 37.74004 3994 ft 245 kts 156°
2026-05-07 20:11 56.11603 37.75498 3981 ft 236 kts 156°
2026-05-07 20:11 56.10213 37.76856 3981 ft 219 kts 163°
2026-05-07 20:12 56.08823 37.77481 3915 ft 194 kts 191°
2026-05-07 20:12 56.07579 37.76915 3913 ft 181 kts 208°
2026-05-07 20:12 56.06399 37.76138 3906 ft 182 kts 206°
2026-05-07 20:12 56.05191 37.75431 3901 ft 182 kts 205°
2026-05-07 20:13 56.03984 37.74755 3798 ft 178 kts 205°
2026-05-07 20:13 56.02810 37.74035 3463 ft 179 kts 212°
2026-05-07 20:13 56.01932 37.72697 3234 ft 162 kts 246°
2026-05-07 20:13 56.01563 37.70868 3002 ft 156 kts 256°
2026-05-07 20:14 56.01240 37.69023 2691 ft 158 kts 255°
2026-05-07 20:14 56.00937 37.67135 2489 ft 156 kts 257°
2026-05-07 20:14 56.00656 37.65242 2514 ft 157 kts 257°
2026-05-07 20:14 56.00392 37.63450 2504 ft 148 kts 258°
2026-05-07 20:15 56.00131 37.61685 2532 ft 139 kts 258°
2026-05-07 20:15 55.99892 37.60052 2437 ft 135 kts 258°
2026-05-07 20:15 55.99654 37.58445 2258 ft 134 kts 258°
2026-05-07 20:15 55.99418 37.56832 2077 ft 135 kts 258°
2026-05-07 20:16 55.99179 37.55218 1893 ft 134 kts 258°
2026-05-07 20:16 55.98938 37.53590 1704 ft 137 kts 258°
2026-05-07 20:16 55.98696 37.51949 1524 ft 139 kts 258°
2026-05-07 20:16 55.98446 37.50270 1329 ft 140 kts 258°
2026-05-07 20:17 55.98190 37.48572 1140 ft 141 kts 258°
2026-05-07 20:17 55.97940 37.46874 956 ft 143 kts 258°
2026-05-07 20:17 55.97684 37.45160 773 ft 142 kts 258°
2026-05-07 20:17 55.97445 37.43482 636 ft 126 kts 255°
2026-05-07 20:18 55.97268 37.42333 636 ft 72 kts 255°
2026-05-07 20:18 55.97145 37.41515 636 ft 63 kts 255°
2026-05-07 20:18 55.96950 37.40913 636 ft 42 kts 226°
2026-05-07 20:18 55.96887 37.40798 636 ft 0 kts 226°
2026-05-07 20:19 55.96876 37.40778 636 ft 7 kts 226°
2026-05-07 20:19 55.96816 37.40666 636 ft 18 kts 234°
2026-05-07 20:19 55.96765 37.40388 636 ft 28 kts 257°
2026-05-07 20:19 55.96715 37.40053 636 ft 25 kts 256°
2026-05-07 20:20 55.96615 37.39884 636 ft 22 kts 166°
2026-05-07 20:20 55.96489 37.40005 636 ft 22 kts 88°
2026-05-07 20:20 55.96502 37.40097 636 ft 0 kts 75°